Year,Month,Day,Hour,Minute,Value (Times are PST for temperature in C)
2015,06,10,00,00,15.40
2015,06,10,00,01,15.40
2015,06,10,00,02,15.40
2015,06,10,00,03,15.40
2015,06,10,00,04,15.40
2015,06,10,00,05,15.40
2015,06,10,00,06,15.40
2015,06,10,00,07,15.40
2015,06,10,00,08,15.40
2015,06,10,00,09,15.40
2015,06,10,00,10,15.40
2015,06,10,00,11,15.40
2015,06,10,00,12,15.30
2015,06,10,00,13,15.30
2015,06,10,00,14,15.30
2015,06,10,00,15,15.30
2015,06,10,00,16,15.30
2015,06,10,00,17,15.30
2015,06,10,00,18,15.30
2015,06,10,00,19,15.30
2015,06,10,00,20,15.30
2015,06,10,00,21,15.30
2015,06,10,00,22,15.30
2015,06,10,00,23,15.30
2015,06,10,00,24,15.30
2015,06,10,00,25,15.20
2015,06,10,00,26,15.20
2015,06,10,00,27,15.20
2015,06,10,00,28,15.20
2015,06,10,00,29,15.20
2015,06,10,00,30,15.20
2015,06,10,00,31,15.20
2015,06,10,00,32,15.20
2015,06,10,00,33,15.20
2015,06,10,00,34,15.20
2015,06,10,00,35,15.20
2015,06,10,00,36,15.20
2015,06,10,00,37,15.20
2015,06,10,00,38,15.10
2015,06,10,00,39,15.10
2015,06,10,00,40,15.10
2015,06,10,00,41,15.10
2015,06,10,00,42,15.10
2015,06,10,00,43,15.10
2015,06,10,00,44,15.10
2015,06,10,00,45,15.10
2015,06,10,00,46,15.00
2015,06,10,00,47,15.00
2015,06,10,00,48,15.00
2015,06,10,00,49,15.00
2015,06,10,00,50,15.00
2015,06,10,00,51,15.00
2015,06,10,00,52,14.90
2015,06,10,00,53,14.90
2015,06,10,00,54,14.90
2015,06,10,00,55,14.90
2015,06,10,00,56,14.90
2015,06,10,00,57,14.90
2015,06,10,00,58,14.90
2015,06,10,00,59,14.90
2015,06,10,01,00,14.90
2015,06,10,01,01,14.90
2015,06,10,01,02,14.90
2015,06,10,01,03,14.80
2015,06,10,01,04,14.80
2015,06,10,01,05,14.80
2015,06,10,01,06,14.80
2015,06,10,01,07,14.80
2015,06,10,01,08,14.80
2015,06,10,01,09,14.80
2015,06,10,01,10,14.70
2015,06,10,01,11,14.70
2015,06,10,01,12,14.70
2015,06,10,01,13,14.70
2015,06,10,01,14,14.70
2015,06,10,01,15,14.70
2015,06,10,01,16,14.70
2015,06,10,01,17,14.70
2015,06,10,01,18,14.70
2015,06,10,01,19,14.70
2015,06,10,01,20,14.70
2015,06,10,01,21,14.70
2015,06,10,01,22,14.60
2015,06,10,01,23,14.60
2015,06,10,01,24,14.60
2015,06,10,01,25,14.60
2015,06,10,01,26,14.60
2015,06,10,01,27,14.60
2015,06,10,01,28,14.60
2015,06,10,01,29,14.60
2015,06,10,01,30,14.60
2015,06,10,01,31,14.60
2015,06,10,01,32,14.60
2015,06,10,01,33,14.60
2015,06,10,01,34,14.60
2015,06,10,01,35,14.60
2015,06,10,01,36,14.60
2015,06,10,01,37,14.50
2015,06,10,01,38,14.50
2015,06,10,01,39,14.50
2015,06,10,01,40,14.50
2015,06,10,01,41,14.50
2015,06,10,01,42,14.40
2015,06,10,01,43,14.40
2015,06,10,01,44,14.40
2015,06,10,01,45,14.40
2015,06,10,01,46,14.40
2015,06,10,01,47,14.40
2015,06,10,01,48,14.40
2015,06,10,01,49,14.40
2015,06,10,01,50,14.40
2015,06,10,01,51,14.40
2015,06,10,01,52,14.40
2015,06,10,01,53,14.40
2015,06,10,01,54,14.40
2015,06,10,01,55,14.40
2015,06,10,01,56,14.40
2015,06,10,01,57,14.40
2015,06,10,01,58,14.40
2015,06,10,01,59,14.40
2015,06,10,02,00,14.40
2015,06,10,02,01,14.50
2015,06,10,02,02,14.40
2015,06,10,02,03,14.40
2015,06,10,02,04,14.40
2015,06,10,02,05,14.40
2015,06,10,02,06,14.40
2015,06,10,02,07,14.40
2015,06,10,02,08,14.40
2015,06,10,02,09,14.40
2015,06,10,02,10,14.30
2015,06,10,02,11,14.30
2015,06,10,02,12,14.30
2015,06,10,02,13,14.30
2015,06,10,02,14,14.30
2015,06,10,02,15,14.30
2015,06,10,02,16,14.30
2015,06,10,02,17,14.30
2015,06,10,02,18,14.30
2015,06,10,02,19,14.30
2015,06,10,02,20,14.30
2015,06,10,02,21,14.30
2015,06,10,02,22,14.30
2015,06,10,02,23,14.30
2015,06,10,02,24,14.20
2015,06,10,02,25,14.20
2015,06,10,02,26,14.20
2015,06,10,02,27,14.20
2015,06,10,02,28,14.20
2015,06,10,02,29,14.20
2015,06,10,02,30,14.20
2015,06,10,02,31,14.20
2015,06,10,02,32,14.20
2015,06,10,02,33,14.20
2015,06,10,02,34,14.20
2015,06,10,02,35,14.10
2015,06,10,02,36,14.20
2015,06,10,02,37,14.10
2015,06,10,02,38,14.10
2015,06,10,02,39,14.10
2015,06,10,02,40,14.10
2015,06,10,02,41,14.10
2015,06,10,02,42,14.10
2015,06,10,02,43,14.00
2015,06,10,02,44,14.00
2015,06,10,02,45,14.00
2015,06,10,02,46,14.00
2015,06,10,02,47,13.90
2015,06,10,02,48,13.90
2015,06,10,02,49,13.90
2015,06,10,02,50,13.90
2015,06,10,02,51,13.90
2015,06,10,02,52,13.90
2015,06,10,02,53,13.90
2015,06,10,02,54,13.80
2015,06,10,02,55,13.80
2015,06,10,02,56,13.80
2015,06,10,02,57,13.80
2015,06,10,02,58,13.80
2015,06,10,02,59,13.80
2015,06,10,03,00,13.80
2015,06,10,03,01,13.80
2015,06,10,03,02,13.80
2015,06,10,03,03,13.80
2015,06,10,04,02,13.30
2015,06,10,04,03,13.20
2015,06,10,04,04,13.20
2015,06,10,04,05,13.20
2015,06,10,04,06,13.20
2015,06,10,04,07,13.20
2015,06,10,04,08,13.20
2015,06,10,04,09,13.20
2015,06,10,04,10,13.20
2015,06,10,04,11,13.20
2015,06,10,04,12,13.20
2015,06,10,04,13,13.20
2015,06,10,04,14,13.10
2015,06,10,04,15,13.10
2015,06,10,04,16,13.10
2015,06,10,04,17,13.10
2015,06,10,04,18,13.10
2015,06,10,04,19,13.00
2015,06,10,04,20,13.00
2015,06,10,04,21,13.00
2015,06,10,04,22,12.90
2015,06,10,04,23,12.90
2015,06,10,04,24,12.90
2015,06,10,04,25,12.90
2015,06,10,04,26,12.90
2015,06,10,04,27,12.90
2015,06,10,04,28,12.90
2015,06,10,04,29,12.90
2015,06,10,04,30,12.90
2015,06,10,04,31,12.90
2015,06,10,04,32,12.80
2015,06,10,04,33,12.80
2015,06,10,04,34,12.80
2015,06,10,04,35,12.80
2015,06,10,04,36,12.80
2015,06,10,04,37,12.80
2015,06,10,04,38,12.80
2015,06,10,04,39,12.80
2015,06,10,04,40,12.80
2015,06,10,04,41,12.80
2015,06,10,04,42,12.70
2015,06,10,04,43,12.70
2015,06,10,04,44,12.70
2015,06,10,04,45,12.70
2015,06,10,04,46,12.70
2015,06,10,04,47,12.70
2015,06,10,04,48,12.70
2015,06,10,04,49,12.70
2015,06,10,04,50,12.60
2015,06,10,04,51,12.60
2015,06,10,04,52,12.60
2015,06,10,04,53,12.60
2015,06,10,04,54,12.60
2015,06,10,04,55,12.60
2015,06,10,04,56,12.60
2015,06,10,04,57,12.60
2015,06,10,04,58,12.50
2015,06,10,04,59,12.50
2015,06,10,05,00,12.50
2015,06,10,05,01,12.50
2015,06,10,05,02,12.40
2015,06,10,05,03,12.40
2015,06,10,05,04,12.40
2015,06,10,05,05,12.40
2015,06,10,05,06,12.40
2015,06,10,05,07,12.40
2015,06,10,05,08,12.40
2015,06,10,05,09,12.40
2015,06,10,05,10,12.40
2015,06,10,05,11,12.40
2015,06,10,05,12,12.40
2015,06,10,05,13,12.40
2015,06,10,05,14,12.40
2015,06,10,05,15,12.40
2015,06,10,05,16,12.40
2015,06,10,05,17,12.40
2015,06,10,05,18,12.40
2015,06,10,05,19,12.40
2015,06,10,05,20,12.40
2015,06,10,05,21,12.40
2015,06,10,05,22,12.40
2015,06,10,05,23,12.40
2015,06,10,05,24,12.40
2015,06,10,05,25,12.40
2015,06,10,05,26,12.30
2015,06,10,05,27,12.30
2015,06,10,05,28,12.30
2015,06,10,05,29,12.30
2015,06,10,05,30,12.30
2015,06,10,05,31,12.30
2015,06,10,05,32,12.30
2015,06,10,05,33,12.30
2015,06,10,05,34,12.30
2015,06,10,05,35,12.30
2015,06,10,05,36,12.40
2015,06,10,05,37,12.40
2015,06,10,05,38,12.40
2015,06,10,05,39,12.40
2015,06,10,05,40,12.40
2015,06,10,05,41,12.40
2015,06,10,05,42,12.40
2015,06,10,05,43,12.50
2015,06,10,05,44,12.50
2015,06,10,05,45,12.50
2015,06,10,05,46,12.50
2015,06,10,05,47,12.50
2015,06,10,05,48,12.50
2015,06,10,05,49,12.50
2015,06,10,05,50,12.50
2015,06,10,05,51,12.60
2015,06,10,05,52,12.60
2015,06,10,05,53,12.60
2015,06,10,05,54,12.60
2015,06,10,05,55,12.60
2015,06,10,05,56,12.60
2015,06,10,05,57,12.60
2015,06,10,05,58,12.60
2015,06,10,05,59,12.60
2015,06,10,06,00,12.60
2015,06,10,06,01,12.70
2015,06,10,06,02,12.70
2015,06,10,06,03,12.70
2015,06,10,06,04,12.70
2015,06,10,06,05,12.70
2015,06,10,06,06,12.70
2015,06,10,06,07,12.70
2015,06,10,06,08,12.70
2015,06,10,06,09,12.70
2015,06,10,06,10,12.70
2015,06,10,06,11,12.70
2015,06,10,06,12,12.80
2015,06,10,06,13,12.80
2015,06,10,06,14,12.80
2015,06,10,06,15,12.80
2015,06,10,06,16,12.80
2015,06,10,06,17,12.80
2015,06,10,06,18,12.80
2015,06,10,06,19,12.80
2015,06,10,06,20,12.90
2015,06,10,06,21,12.90
2015,06,10,06,22,12.90
2015,06,10,06,23,12.90
2015,06,10,06,24,13.00
2015,06,10,06,25,13.00
2015,06,10,06,26,13.00
2015,06,10,06,27,13.10
2015,06,10,06,28,13.10
2015,06,10,06,29,13.10
2015,06,10,06,30,13.10
2015,06,10,06,31,13.10
2015,06,10,06,32,13.20
2015,06,10,06,33,13.20
2015,06,10,06,34,13.20
2015,06,10,06,35,13.20
2015,06,10,06,36,13.20
2015,06,10,06,37,13.20
2015,06,10,06,38,13.20
2015,06,10,06,39,13.30
2015,06,10,06,40,13.30
2015,06,10,06,41,13.30
2015,06,10,06,42,13.30
2015,06,10,06,43,13.30
2015,06,10,06,44,13.40
2015,06,10,06,45,13.40
2015,06,10,06,46,13.40
2015,06,10,06,47,13.40
2015,06,10,06,48,13.50
2015,06,10,06,49,13.50
2015,06,10,06,50,13.50
2015,06,10,06,51,13.60
2015,06,10,06,52,13.60
2015,06,10,06,53,13.60
2015,06,10,06,54,13.60
2015,06,10,06,55,13.60
2015,06,10,06,56,13.70
2015,06,10,06,57,13.70
2015,06,10,06,58,13.70
2015,06,10,06,59,13.70
2015,06,10,07,00,13.70
2015,06,10,07,01,13.70
2015,06,10,07,02,13.70
2015,06,10,07,03,13.80
2015,06,10,07,04,13.80
2015,06,10,07,05,13.80
2015,06,10,07,06,13.80
2015,06,10,07,07,13.80
2015,06,10,07,08,13.90
2015,06,10,07,09,13.90
2015,06,10,07,10,13.90
2015,06,10,07,11,13.90
2015,06,10,07,12,13.90
2015,06,10,07,13,13.90
2015,06,10,07,14,14.00
2015,06,10,07,15,14.00
2015,06,10,07,16,14.10
2015,06,10,07,17,14.10
2015,06,10,07,18,14.10
2015,06,10,07,19,14.10
2015,06,10,07,20,14.10
2015,06,10,07,21,14.20
2015,06,10,07,22,14.20
2015,06,10,07,23,14.20
2015,06,10,07,24,14.20
2015,06,10,07,25,14.20
2015,06,10,07,26,14.20
2015,06,10,07,27,14.20
2015,06,10,07,28,14.20
2015,06,10,07,29,14.20
2015,06,10,07,30,14.30
2015,06,10,07,31,14.30
2015,06,10,07,32,14.30
2015,06,10,07,33,14.30
2015,06,10,07,34,14.30
2015,06,10,07,35,14.30
2015,06,10,07,36,14.40
2015,06,10,07,37,14.40
2015,06,10,07,38,14.40
2015,06,10,07,39,14.40
2015,06,10,07,40,14.40
2015,06,10,07,41,14.50
2015,06,10,07,42,14.60
2015,06,10,07,43,14.60
2015,06,10,07,44,14.70
2015,06,10,07,45,14.70
2015,06,10,07,46,14.70
2015,06,10,07,47,14.80
2015,06,10,07,48,14.80
2015,06,10,07,49,14.80
2015,06,10,07,50,14.80
2015,06,10,07,51,14.90
2015,06,10,07,52,14.90
2015,06,10,07,53,14.90
2015,06,10,07,54,14.90
2015,06,10,07,55,15.00
2015,06,10,07,56,15.00
2015,06,10,07,57,15.00
2015,06,10,07,58,15.00
2015,06,10,07,59,15.10
2015,06,10,08,00,15.10
2015,06,10,08,01,15.10
2015,06,10,08,02,15.10
2015,06,10,08,03,15.20
2015,06,10,08,04,15.20
2015,06,10,08,05,15.20
2015,06,10,08,06,15.20
2015,06,10,08,07,15.20
2015,06,10,08,08,15.20
2015,06,10,08,09,15.20
2015,06,10,08,10,15.20
2015,06,10,08,11,15.20
2015,06,10,08,12,15.20
2015,06,10,08,13,15.30
2015,06,10,08,14,15.30
2015,06,10,08,15,15.30
2015,06,10,08,16,15.30
2015,06,10,08,17,15.40
2015,06,10,08,18,15.40
2015,06,10,08,19,15.40
2015,06,10,08,20,15.40
2015,06,10,08,21,15.40
2015,06,10,08,22,15.50
2015,06,10,08,23,15.50
2015,06,10,08,24,15.50
2015,06,10,08,25,15.60
2015,06,10,08,26,15.60
2015,06,10,08,27,15.70
2015,06,10,08,28,15.70
2015,06,10,08,29,15.70
2015,06,10,08,30,15.70
2015,06,10,08,31,15.80
2015,06,10,08,32,15.80
2015,06,10,08,33,15.80
2015,06,10,08,34,15.90
2015,06,10,08,35,16.00
2015,06,10,08,36,16.00
2015,06,10,08,37,16.10
2015,06,10,08,38,16.10
2015,06,10,08,39,16.10
2015,06,10,08,40,16.10
2015,06,10,08,41,16.10
2015,06,10,08,42,16.10
2015,06,10,08,43,16.00
2015,06,10,08,44,15.90
2015,06,10,08,45,15.90
2015,06,10,08,46,15.90
2015,06,10,08,47,16.00
2015,06,10,08,48,16.00
2015,06,10,08,49,16.10
2015,06,10,08,50,16.10
2015,06,10,08,51,16.10
2015,06,10,08,52,16.10
2015,06,10,08,53,16.10
2015,06,10,08,54,16.00
2015,06,10,08,55,15.90
2015,06,10,08,56,15.90
2015,06,10,08,57,15.80
2015,06,10,08,58,15.80
2015,06,10,08,59,15.80
2015,06,10,09,00,15.80
2015,06,10,09,01,15.80
2015,06,10,09,02,15.70
2015,06,10,09,03,15.70
2015,06,10,09,04,15.60
2015,06,10,09,05,15.60
2015,06,10,09,06,15.60
2015,06,10,09,07,15.60
2015,06,10,09,08,15.50
2015,06,10,09,09,15.40
2015,06,10,09,10,15.40
2015,06,10,09,11,15.40
2015,06,10,09,12,15.40
2015,06,10,09,13,15.50
2015,06,10,09,14,15.50
2015,06,10,09,15,15.60
2015,06,10,09,16,15.60
2015,06,10,09,17,15.70
2015,06,10,09,18,15.70
2015,06,10,09,19,15.70
2015,06,10,09,20,15.70
2015,06,10,09,21,15.70
2015,06,10,09,22,15.70
2015,06,10,09,23,15.70
2015,06,10,09,24,15.70
2015,06,10,09,25,15.70
2015,06,10,09,26,15.70
2015,06,10,09,27,15.70
2015,06,10,09,28,15.70
2015,06,10,09,29,15.70
2015,06,10,09,30,15.70
2015,06,10,09,31,15.80
2015,06,10,09,32,15.80
2015,06,10,09,33,15.80
2015,06,10,09,34,15.80
2015,06,10,09,35,15.80
2015,06,10,09,36,15.80
2015,06,10,09,37,15.90
2015,06,10,09,38,15.90
2015,06,10,09,39,15.90
2015,06,10,09,40,15.90
2015,06,10,09,41,16.00
2015,06,10,09,42,16.00
2015,06,10,09,43,16.20
2015,06,10,09,44,16.40
2015,06,10,09,45,16.40
2015,06,10,09,46,16.40
2015,06,10,09,47,16.50
2015,06,10,09,48,16.50
2015,06,10,09,49,16.50
2015,06,10,09,50,16.40
2015,06,10,09,51,16.40
2015,06,10,09,52,16.30
2015,06,10,09,53,16.30
2015,06,10,09,54,16.30
2015,06,10,09,55,16.30
2015,06,10,09,56,16.30
2015,06,10,09,57,16.30
2015,06,10,09,58,16.20
2015,06,10,09,59,16.20
2015,06,10,10,00,16.30
2015,06,10,10,01,16.30
2015,06,10,10,02,16.30
2015,06,10,10,03,16.30
2015,06,10,10,04,16.30
2015,06,10,10,05,16.30
2015,06,10,10,06,16.30
2015,06,10,10,07,16.40
2015,06,10,10,08,16.30
2015,06,10,10,09,16.30
2015,06,10,10,10,16.20
2015,06,10,10,11,16.10
2015,06,10,10,12,16.10
2015,06,10,10,13,16.10
2015,06,10,10,14,16.10
2015,06,10,10,15,16.10
2015,06,10,10,16,16.10
2015,06,10,10,17,16.10
2015,06,10,10,18,16.10
2015,06,10,10,19,16.10
2015,06,10,10,20,16.10
2015,06,10,10,21,16.10
2015,06,10,10,22,16.10
2015,06,10,10,23,16.20
2015,06,10,10,24,16.20
2015,06,10,10,25,16.30
2015,06,10,10,26,16.30
2015,06,10,10,27,16.40
2015,06,10,10,28,16.50
2015,06,10,10,29,16.60
2015,06,10,10,30,16.70
2015,06,10,10,31,16.70
2015,06,10,10,32,16.70
2015,06,10,10,33,16.60
2015,06,10,10,34,16.60
2015,06,10,10,35,16.60
2015,06,10,10,36,16.50
2015,06,10,10,37,16.50
2015,06,10,10,38,16.50
2015,06,10,10,39,16.50
2015,06,10,10,40,16.50
2015,06,10,10,41,16.50
2015,06,10,10,42,16.40
2015,06,10,10,43,16.40
2015,06,10,10,44,16.40
2015,06,10,10,45,16.30
2015,06,10,10,46,16.30
2015,06,10,10,47,16.20
2015,06,10,10,48,16.20
2015,06,10,10,49,16.30
2015,06,10,10,50,16.30
2015,06,10,10,51,16.30
2015,06,10,10,52,16.30
2015,06,10,10,53,16.30
2015,06,10,10,54,16.30
2015,06,10,10,55,16.30
2015,06,10,10,56,16.40
2015,06,10,10,57,16.50
2015,06,10,10,58,16.50
2015,06,10,10,59,16.60
2015,06,10,11,00,16.70
2015,06,10,11,01,16.70
2015,06,10,11,02,16.70
2015,06,10,11,03,16.70
2015,06,10,11,04,16.70
2015,06,10,11,05,16.70
2015,06,10,11,06,16.70
2015,06,10,11,07,16.70
2015,06,10,11,08,16.80
2015,06,10,11,09,16.80
2015,06,10,11,10,16.90
2015,06,10,11,11,17.00
2015,06,10,11,12,17.10
2015,06,10,11,13,17.10
2015,06,10,11,14,17.20
2015,06,10,11,15,17.20
2015,06,10,11,16,17.30
2015,06,10,11,17,17.30
2015,06,10,11,18,17.30
2015,06,10,11,19,17.30
2015,06,10,11,20,17.30
2015,06,10,11,21,17.30
2015,06,10,11,22,17.30
2015,06,10,11,23,17.30
2015,06,10,11,24,17.30
2015,06,10,11,25,17.40
2015,06,10,11,26,17.40
2015,06,10,11,27,17.40
2015,06,10,11,28,17.50
2015,06,10,11,29,17.50
2015,06,10,11,30,17.50
2015,06,10,11,31,17.50
2015,06,10,11,32,17.40
2015,06,10,11,33,17.40
2015,06,10,11,34,17.30
2015,06,10,11,35,17.30
2015,06,10,11,36,17.30
2015,06,10,11,37,17.30
2015,06,10,11,38,17.30
2015,06,10,11,39,17.30
2015,06,10,11,40,17.30
2015,06,10,11,41,17.30
2015,06,10,11,42,17.30
2015,06,10,11,43,17.30
2015,06,10,11,44,17.40
2015,06,10,11,45,17.40
2015,06,10,11,46,17.40
2015,06,10,11,47,17.50
2015,06,10,11,48,17.50
2015,06,10,11,49,17.50
2015,06,10,11,50,17.40
2015,06,10,11,51,17.40
2015,06,10,11,52,17.50
2015,06,10,11,53,17.50
2015,06,10,11,54,17.60
2015,06,10,11,55,17.60
2015,06,10,11,56,17.70
2015,06,10,11,57,17.70
2015,06,10,11,58,17.70
2015,06,10,11,59,17.70
2015,06,10,12,00,17.80
2015,06,10,12,01,17.80
2015,06,10,12,02,17.90
2015,06,10,12,03,18.00
2015,06,10,12,04,18.10
2015,06,10,12,05,18.20
2015,06,10,12,06,18.20
2015,06,10,12,07,18.30
2015,06,10,12,08,18.30
2015,06,10,12,09,18.30
2015,06,10,12,10,18.30
2015,06,10,12,11,18.30
2015,06,10,12,12,18.30
2015,06,10,12,13,18.30
2015,06,10,12,14,18.40
2015,06,10,12,15,18.50
2015,06,10,12,16,18.60
2015,06,10,12,17,18.70
2015,06,10,12,18,18.70
2015,06,10,12,19,18.70
2015,06,10,12,20,18.60
2015,06,10,12,21,18.60
2015,06,10,12,22,18.60
2015,06,10,12,23,18.70
2015,06,10,12,24,18.70
2015,06,10,12,25,18.70
2015,06,10,12,26,18.70
2015,06,10,12,27,18.80
2015,06,10,12,28,18.80
2015,06,10,12,29,18.90
2015,06,10,12,30,18.90
2015,06,10,12,31,19.00
2015,06,10,12,32,19.10
2015,06,10,12,33,19.20
2015,06,10,12,34,19.20
2015,06,10,12,35,19.20
2015,06,10,12,36,19.30
2015,06,10,12,37,19.40
2015,06,10,12,38,19.40
2015,06,10,12,39,19.40
2015,06,10,12,40,19.40
2015,06,10,12,41,19.40
2015,06,10,12,42,19.40
2015,06,10,12,43,19.40
2015,06,10,12,44,19.40
2015,06,10,12,45,19.40
2015,06,10,12,46,19.40
2015,06,10,12,47,19.40
2015,06,10,12,48,19.50
2015,06,10,12,49,19.50
2015,06,10,12,50,19.60
2015,06,10,12,51,19.60
2015,06,10,12,52,19.70
2015,06,10,12,53,19.70
2015,06,10,12,54,19.70
2015,06,10,12,55,19.80
2015,06,10,12,56,19.80
2015,06,10,12,57,19.80
2015,06,10,12,58,19.90
2015,06,10,12,59,20.00
2015,06,10,13,00,20.00
2015,06,10,13,01,20.10
2015,06,10,13,02,20.20
2015,06,10,13,03,20.20
2015,06,10,13,04,20.20
2015,06,10,13,05,20.30
2015,06,10,13,06,20.30
2015,06,10,13,07,20.40
2015,06,10,13,08,20.40
2015,06,10,13,09,20.50
2015,06,10,13,10,20.60
2015,06,10,13,11,20.70
2015,06,10,13,12,20.80
2015,06,10,13,13,20.80
2015,06,10,13,14,20.80
2015,06,10,13,15,20.80
2015,06,10,13,16,20.70
2015,06,10,13,17,20.70
2015,06,10,13,18,20.70
2015,06,10,13,19,20.70
2015,06,10,13,20,20.80
2015,06,10,13,21,20.70
2015,06,10,13,22,20.70
2015,06,10,13,23,20.80
2015,06,10,13,24,20.80
2015,06,10,13,25,20.80
2015,06,10,13,26,20.90
2015,06,10,13,27,21.00
2015,06,10,13,28,21.10
2015,06,10,13,29,21.10
2015,06,10,13,30,21.10
2015,06,10,13,31,21.20
2015,06,10,13,32,21.30
2015,06,10,13,33,21.40
2015,06,10,13,34,21.50
2015,06,10,13,35,21.50
2015,06,10,13,36,21.60
2015,06,10,13,37,21.60
2015,06,10,13,38,21.70
2015,06,10,13,39,21.70
2015,06,10,13,40,21.80
2015,06,10,13,41,21.80
2015,06,10,13,42,21.80
2015,06,10,13,43,21.80
2015,06,10,13,44,21.80
2015,06,10,13,45,21.80
2015,06,10,13,46,21.70
2015,06,10,13,47,21.80
2015,06,10,13,48,21.80
2015,06,10,13,49,21.80
2015,06,10,13,50,21.80
2015,06,10,13,51,21.70
2015,06,10,13,52,21.70
2015,06,10,13,53,21.70
2015,06,10,13,54,21.70
2015,06,10,13,55,21.70
2015,06,10,13,56,21.70
2015,06,10,13,57,21.70
2015,06,10,13,58,21.60
2015,06,10,13,59,21.60
2015,06,10,14,00,21.60
2015,06,10,14,01,21.60
2015,06,10,14,02,21.60
2015,06,10,14,03,21.60
2015,06,10,14,04,21.50
2015,06,10,14,05,21.40
2015,06,10,14,06,21.30
2015,06,10,14,07,21.30
2015,06,10,14,08,21.30
2015,06,10,14,09,21.40
2015,06,10,14,10,21.40
2015,06,10,14,11,21.40
2015,06,10,14,12,21.40
2015,06,10,14,13,21.50
2015,06,10,14,14,21.50
2015,06,10,14,15,21.50
2015,06,10,14,16,21.40
2015,06,10,14,17,21.40
2015,06,10,14,18,21.50
2015,06,10,14,19,21.50
2015,06,10,14,20,21.40
2015,06,10,14,21,21.40
2015,06,10,14,22,21.40
2015,06,10,14,23,21.40
2015,06,10,14,24,21.30
2015,06,10,14,25,21.20
2015,06,10,14,26,21.20
2015,06,10,14,27,21.10
2015,06,10,14,28,21.10
2015,06,10,14,29,21.20
2015,06,10,14,30,21.30
2015,06,10,14,31,21.40
2015,06,10,14,32,21.50
2015,06,10,14,33,21.60
2015,06,10,14,34,21.70
2015,06,10,14,35,21.70
2015,06,10,14,36,21.80
2015,06,10,14,37,21.90
2015,06,10,14,38,22.00
2015,06,10,14,39,21.90
2015,06,10,14,40,21.90
2015,06,10,14,41,21.90
2015,06,10,14,42,21.80
2015,06,10,14,43,21.90
2015,06,10,14,44,21.90
2015,06,10,14,45,21.90
2015,06,10,14,46,21.90
2015,06,10,14,47,22.00
2015,06,10,14,48,22.10
2015,06,10,14,49,22.20
2015,06,10,14,50,22.30
2015,06,10,14,51,22.30
2015,06,10,14,52,22.40
2015,06,10,14,53,22.40
2015,06,10,14,54,22.40
2015,06,10,14,55,22.40
2015,06,10,14,56,22.40
2015,06,10,14,57,22.40
2015,06,10,14,58,22.40
2015,06,10,14,59,22.40
2015,06,10,15,00,22.50
2015,06,10,15,01,22.50
2015,06,10,15,02,22.50
2015,06,10,15,03,22.40
2015,06,10,15,04,22.40
2015,06,10,15,05,22.40
2015,06,10,15,06,22.40
2015,06,10,15,07,22.40
2015,06,10,15,08,22.50
2015,06,10,15,09,22.50
2015,06,10,15,10,22.60
2015,06,10,15,11,22.60
2015,06,10,15,12,22.60
2015,06,10,15,13,22.60
2015,06,10,15,14,22.60
2015,06,10,15,15,22.70
2015,06,10,15,16,22.70
2015,06,10,15,17,22.80
2015,06,10,15,18,22.90
2015,06,10,15,19,23.00
2015,06,10,15,20,23.10
2015,06,10,15,21,23.20
2015,06,10,15,22,23.30
2015,06,10,15,23,23.50
2015,06,10,15,24,23.50
2015,06,10,15,25,23.40
2015,06,10,15,26,23.50
2015,06,10,15,27,23.50
2015,06,10,15,28,23.60
2015,06,10,15,29,23.60
2015,06,10,15,30,23.70
2015,06,10,15,31,23.70
2015,06,10,15,32,23.70
2015,06,10,15,33,23.70
2015,06,10,15,34,23.80
2015,06,10,15,35,23.80
2015,06,10,15,36,23.80
2015,06,10,15,37,23.80
2015,06,10,15,38,23.90
2015,06,10,15,39,23.90
2015,06,10,15,40,23.90
2015,06,10,15,41,24.00
2015,06,10,15,42,23.90
2015,06,10,15,43,23.90
2015,06,10,15,44,23.90
2015,06,10,15,45,23.90
2015,06,10,15,46,23.90
2015,06,10,15,47,23.90
2015,06,10,15,48,23.90
2015,06,10,15,49,23.80
2015,06,10,15,50,23.80
2015,06,10,15,51,23.80
2015,06,10,15,52,23.80
2015,06,10,15,53,23.80
2015,06,10,15,54,23.90
2015,06,10,15,55,23.90
2015,06,10,15,56,24.00
2015,06,10,15,57,24.00
2015,06,10,15,58,24.10
2015,06,10,15,59,24.10
2015,06,10,16,00,24.20
2015,06,10,16,01,24.30
2015,06,10,16,02,24.30
2015,06,10,16,03,24.40
2015,06,10,16,04,24.40
2015,06,10,16,05,24.40
2015,06,10,16,06,24.30
2015,06,10,16,07,24.30
2015,06,10,16,08,24.30
2015,06,10,16,09,24.30
2015,06,10,16,10,24.40
2015,06,10,16,11,24.40
2015,06,10,16,12,24.40
2015,06,10,16,13,24.50
2015,06,10,16,14,24.50
2015,06,10,16,15,24.40
2015,06,10,16,16,24.50
2015,06,10,16,17,24.50
2015,06,10,16,18,24.40
2015,06,10,16,19,24.40
2015,06,10,16,20,24.40
2015,06,10,16,21,24.40
2015,06,10,16,22,24.40
2015,06,10,16,23,24.40
2015,06,10,16,24,24.40
2015,06,10,16,25,24.40
2015,06,10,16,26,24.30
2015,06,10,16,27,24.30
2015,06,10,16,28,24.30
2015,06,10,16,29,24.30
2015,06,10,16,30,24.30
2015,06,10,16,31,24.20
2015,06,10,16,32,24.20
2015,06,10,16,33,24.10
2015,06,10,16,34,24.00
2015,06,10,16,35,24.00
2015,06,10,16,36,24.00
2015,06,10,16,37,23.90
2015,06,10,16,38,23.90
2015,06,10,16,39,23.90
2015,06,10,16,40,23.90
2015,06,10,16,41,23.90
2015,06,10,16,42,23.90
2015,06,10,16,43,23.90
2015,06,10,16,44,23.90
2015,06,10,16,45,23.80
2015,06,10,16,46,23.80
2015,06,10,16,47,23.80
2015,06,10,16,48,23.80
2015,06,10,16,49,23.90
2015,06,10,16,50,23.90
2015,06,10,16,51,24.00
2015,06,10,16,52,24.00
2015,06,10,16,53,24.10
2015,06,10,16,54,24.10
2015,06,10,16,55,24.00
2015,06,10,16,56,24.00
2015,06,10,16,57,23.90
2015,06,10,16,58,23.80
2015,06,10,16,59,23.80
2015,06,10,17,00,23.80
2015,06,10,17,01,23.70
2015,06,10,17,02,23.80
2015,06,10,17,03,23.80
2015,06,10,17,04,23.80
2015,06,10,17,05,23.80
2015,06,10,17,06,23.80
2015,06,10,17,07,23.70
2015,06,10,17,08,23.70
2015,06,10,17,09,23.70
2015,06,10,17,10,23.60
2015,06,10,17,11,23.60
2015,06,10,17,12,23.60
2015,06,10,17,13,23.60
2015,06,10,17,14,23.50
2015,06,10,17,15,23.50
2015,06,10,17,16,23.40
2015,06,10,17,17,23.30
2015,06,10,17,18,23.20
2015,06,10,17,19,23.00
2015,06,10,17,20,22.90
2015,06,10,17,21,22.80
2015,06,10,17,22,22.80
2015,06,10,17,23,22.70
2015,06,10,17,24,22.60
2015,06,10,17,25,22.60
2015,06,10,17,26,22.60
2015,06,10,17,27,22.70
2015,06,10,17,28,22.70
2015,06,10,17,29,22.80
2015,06,10,17,30,22.80
2015,06,10,17,31,22.80
2015,06,10,17,32,22.80
2015,06,10,17,33,22.80
2015,06,10,17,34,22.80
2015,06,10,17,35,22.80
2015,06,10,17,36,22.80
2015,06,10,17,37,22.80
2015,06,10,17,38,22.80
2015,06,10,17,39,22.90
2015,06,10,17,40,22.90
2015,06,10,17,41,22.90
2015,06,10,17,42,22.80
2015,06,10,17,43,22.80
2015,06,10,17,44,22.80
2015,06,10,17,45,22.80
2015,06,10,17,46,22.80
2015,06,10,17,47,22.80
2015,06,10,17,48,22.80
2015,06,10,17,49,22.80
2015,06,10,17,50,22.80
2015,06,10,17,51,22.70
2015,06,10,17,52,22.60
2015,06,10,17,53,22.50
2015,06,10,17,54,22.40
2015,06,10,17,55,22.40
2015,06,10,17,56,22.40
2015,06,10,17,57,22.50
2015,06,10,17,58,22.50
2015,06,10,17,59,22.50
2015,06,10,18,00,22.50
2015,06,10,18,01,22.60
2015,06,10,18,02,22.60
2015,06,10,18,03,22.70
2015,06,10,18,04,22.80
2015,06,10,18,05,22.90
2015,06,10,18,06,23.10
2015,06,10,18,07,23.20
2015,06,10,18,08,23.30
2015,06,10,18,09,23.30
2015,06,10,18,10,23.30
2015,06,10,18,11,23.30
2015,06,10,18,12,23.20
2015,06,10,18,13,23.10
2015,06,10,18,14,23.00
2015,06,10,18,15,22.90
2015,06,10,18,16,22.90
2015,06,10,18,17,22.80